TimeAKST,TemperatureF,Dew PointF,Humidity,Sea Level PressureIn,VisibilityMPH,Wind Direction,Wind SpeedMPH,Gust SpeedMPH,PrecipitationIn,Events,Conditions,WindDirDegrees,DateUTC
12:16 AM,-9.4,-9999,N/A,29.82,10.0,Calm,Calm,-,N/A,,Clear,0,2013-01-05 09:16:00
12:36 AM,-14.8,-9999,N/A,29.81,10.0,Calm,Calm,-,N/A,,Clear,0,2013-01-05 09:36:00
12:56 AM,-14.8,-9999,N/A,29.81,10.0,Calm,Calm,-,N/A,,Clear,0,2013-01-05 09:56:00
1:16 AM,-14.8,-9999,N/A,29.81,10.0,Calm,Calm,-,N/A,,Clear,0,2013-01-05 10:16:00
1:36 AM,-16.6,-9999,N/A,29.81,10.0,Calm,Calm,-,N/A,,Clear,0,2013-01-05 10:36:00
1:56 AM,-16.6,-9999,N/A,29.81,10.0,Calm,Calm,-,N/A,,Clear,0,2013-01-05 10:56:00
2:16 AM,-16.6,-25.6,64,29.81,10.0,Calm,Calm,-,N/A,,Clear,0,2013-01-05 11:16:00
2:56 AM,-13.0,-27.4,49,29.81,10.0,Calm,Calm,-,N/A,,Clear,0,2013-01-05 11:56:00
3:16 AM,-13.0,-18.4,77,29.80,10.0,Calm,Calm,-,N/A,,Clear,0,2013-01-05 12:16:00
3:36 AM,-13.0,-9999,N/A,29.79,10.0,Calm,Calm,-,N/A,,Clear,0,2013-01-05 12:36:00
3:56 AM,-9.4,-9999,N/A,29.79,10.0,Calm,Calm,-,N/A,,Clear,0,2013-01-05 12:56:00
4:16 AM,-14.8,-9999,N/A,29.79,10.0,Calm,Calm,-,N/A,,Clear,0,2013-01-05 13:16:00
4:36 AM,-9.4,-9999,N/A,29.78,10.0,Calm,Calm,-,N/A,,Clear,0,2013-01-05 13:36:00
4:56 AM,-7.6,-25.6,41,29.78,10.0,Calm,Calm,-,N/A,,Clear,0,2013-01-05 13:56:00
5:16 AM,-14.8,-9999,N/A,29.77,10.0,Calm,Calm,-,N/A,,Clear,0,2013-01-05 14:16:00
5:36 AM,-13.0,-23.8,59,29.77,10.0,Calm,Calm,-,N/A,,Clear,0,2013-01-05 14:36:00
5:56 AM,-13.0,-22.0,64,29.77,10.0,Calm,Calm,-,N/A,,Clear,0,2013-01-05 14:56:00
6:16 AM,-13.0,-27.4,49,29.77,10.0,Calm,Calm,-,N/A,,Scattered Clouds,0,2013-01-05 15:16:00
6:56 AM,-9.4,-9999,N/A,29.76,10.0,Calm,Calm,-,N/A,,Clear,0,2013-01-05 15:56:00
7:16 AM,-11.2,-9999,N/A,29.75,10.0,Calm,Calm,-,N/A,,Mostly Cloudy,0,2013-01-05 16:16:00
7:56 AM,-11.2,-9999,N/A,29.75,10.0,Calm,Calm,-,N/A,,Overcast,0,2013-01-05 16:56:00
8:16 AM,-9.4,-9999,N/A,29.74,10.0,Calm,Calm,-,N/A,,Overcast,0,2013-01-05 17:16:00
8:36 AM,-9.4,-27.4,41,29.74,10.0,Calm,Calm,-,N/A,,Overcast,0,2013-01-05 17:36:00
8:56 AM,-7.6,-16.6,65,29.73,10.0,Calm,Calm,-,N/A,,Overcast,0,2013-01-05 17:56:00
9:16 AM,-7.6,-20.2,54,29.73,10.0,Calm,Calm,-,N/A,,Overcast,0,2013-01-05 18:16:00
9:36 AM,-7.6,-9999,N/A,29.73,10.0,Calm,Calm,-,N/A,,Overcast,0,2013-01-05 18:36:00
9:56 AM,-5.8,-9999,N/A,29.72,10.0,Calm,Calm,-,N/A,,Overcast,0,2013-01-05 18:56:00
10:16 AM,-5.8,-29.2,32,29.72,10.0,Calm,Calm,-,N/A,,Overcast,0,2013-01-05 19:16:00
10:36 AM,-7.6,-29.2,34,29.72,10.0,Calm,Calm,-,N/A,,Mostly Cloudy,0,2013-01-05 19:36:00
10:56 AM,-7.6,-25.6,41,29.71,10.0,Calm,Calm,-,N/A,,Scattered Clouds,0,2013-01-05 19:56:00
11:16 AM,-5.8,-18.4,55,29.71,10.0,Calm,Calm,-,N/A,,Clear,0,2013-01-05 20:16:00
11:36 AM,-5.8,-16.6,60,29.71,10.0,Calm,Calm,-,N/A,,Partly Cloudy,0,2013-01-05 20:36:00
11:56 AM,-5.8,-13.0,71,29.71,10.0,Calm,Calm,-,N/A,,Clear,0,2013-01-05 20:56:00
12:16 PM,-5.8,-9999,N/A,29.71,10.0,Calm,Calm,-,N/A,,Clear,0,2013-01-05 21:16:00
12:36 PM,-7.6,-9999,N/A,29.71,10.0,Calm,Calm,-,N/A,,Clear,0,2013-01-05 21:36:00
12:56 PM,-7.6,-9999,N/A,29.70,10.0,Calm,Calm,-,N/A,,Clear,0,2013-01-05 21:56:00
1:16 PM,-7.6,-9999,N/A,29.69,10.0,Calm,Calm,-,N/A,,Clear,0,2013-01-05 22:16:00
1:56 PM,-9.4,-27.4,41,29.67,10.0,Calm,Calm,-,N/A,,Clear,0,2013-01-05 22:56:00
2:16 PM,-7.6,-14.8,71,29.67,10.0,Calm,Calm,-,N/A,,Clear,0,2013-01-05 23:16:00
2:36 PM,-5.8,-20.2,50,29.65,10.0,Calm,Calm,-,N/A,,Clear,0,2013-01-05 23:36:00
2:56 PM,-5.8,-9999,N/A,29.65,10.0,Calm,Calm,-,N/A,,Clear,0,2013-01-05 23:56:00
3:16 PM,-7.6,-9999,N/A,29.65,10.0,Calm,Calm,-,N/A,,Clear,0,2013-01-06 00:16:00
3:36 PM,-7.6,-29.2,34,29.64,10.0,Calm,Calm,-,N/A,,Clear,0,2013-01-06 00:36:00
3:56 PM,-5.8,-29.2,32,29.64,10.0,Calm,Calm,-,N/A,,Clear,0,2013-01-06 00:56:00
4:16 PM,-4.0,-25.6,35,29.63,10.0,Calm,Calm,-,N/A,,Clear,0,2013-01-06 01:16:00
4:36 PM,-5.8,-16.6,60,29.62,10.0,Calm,Calm,-,N/A,,Clear,0,2013-01-06 01:36:00
4:56 PM,-7.6,-20.2,54,29.62,10.0,Calm,Calm,-,N/A,,Clear,0,2013-01-06 01:56:00
5:16 PM,-9.4,-9999,N/A,29.61,10.0,Calm,Calm,-,N/A,,Clear,0,2013-01-06 02:16:00
5:36 PM,-9.4,-9999,N/A,29.61,10.0,Calm,Calm,-,N/A,,Clear,0,2013-01-06 02:36:00
5:56 PM,-11.2,-9999,N/A,29.61,10.0,Calm,Calm,-,N/A,,Clear,0,2013-01-06 02:56:00
6:16 PM,-5.8,-9999,N/A,29.61,10.0,Calm,Calm,-,N/A,,Clear,0,2013-01-06 03:16:00
6:36 PM,-7.6,-9999,N/A,29.60,10.0,Calm,Calm,-,N/A,,Clear,0,2013-01-06 03:36:00
6:56 PM,-7.6,-27.4,38,29.59,10.0,Calm,Calm,-,N/A,,Clear,0,2013-01-06 03:56:00
7:16 PM,-9.4,-25.6,45,29.59,10.0,Calm,Calm,-,N/A,,Clear,0,2013-01-06 04:16:00
7:36 PM,-9.4,-20.2,59,29.59,10.0,Calm,Calm,-,N/A,,Clear,0,2013-01-06 04:36:00
7:56 PM,-11.2,-25.6,49,29.58,10.0,Calm,Calm,-,N/A,,Clear,0,2013-01-06 04:56:00
8:16 PM,-11.2,-18.4,70,29.58,10.0,Calm,Calm,-,N/A,,Clear,0,2013-01-06 05:16:00
8:36 PM,-9.4,-14.8,77,29.57,10.0,Calm,Calm,-,N/A,,Clear,0,2013-01-06 05:36:00
8:56 PM,-11.2,-9999,N/A,29.57,10.0,Calm,Calm,-,N/A,,Clear,0,2013-01-06 05:56:00
9:16 PM,-13.0,-9999,N/A,29.57,10.0,Calm,Calm,-,N/A,,Clear,0,2013-01-06 06:16:00
9:36 PM,-9.4,-9999,N/A,29.56,10.0,Calm,Calm,-,N/A,,Clear,0,2013-01-06 06:36:00
9:56 PM,-11.2,-9999,N/A,29.56,10.0,Calm,Calm,-,N/A,,Clear,0,2013-01-06 06:56:00
10:16 PM,-11.2,-9999,N/A,29.56,10.0,Calm,Calm,-,N/A,,Clear,0,2013-01-06 07:16:00
10:36 PM,-11.2,-9999,N/A,29.56,10.0,Calm,Calm,-,N/A,,Clear,0,2013-01-06 07:36:00
10:56 PM,-9.4,-23.8,49,29.56,10.0,Calm,Calm,-,N/A,,Clear,0,2013-01-06 07:56:00
11:16 PM,-11.2,-27.4,45,29.57,10.0,Calm,Calm,-,N/A,,Clear,0,2013-01-06 08:16:00
11:36 PM,-9.4,-9.4,100,29.56,10.0,Calm,Calm,-,N/A,,Clear,0,2013-01-06 08:36:00
11:56 PM,-9.4,-9999,N/A,29.56,10.0,Calm,Calm,-,N/A,,Clear,0,2013-01-06 08:56:00